User: anonymous   Login
Location: Unspecified
(0.0000°N, 0.0000°E)
Time: 16:51:33
(UTC+02:00)
Language:

YAOGAN 3 - Orbit

View from above orbital plane
View from above orbital plane
View from above satellite
View from above satellite

Ground track
Ground track

The orbit data is extracted from the following two-line orbital elements,

1 32289U 07055A   16146.09639242  .00000385  00000-0  56916-4 0  9991
2 32289  97.9840 143.3628 0001807  99.8749 260.2695 14.80698435461304
Epoch (UTC): 25 May 2016 02:18:48
Eccentricity: 0.0001807
inclination: 97.9840°
perigee height: 626 km
apogee height: 628 km
right ascension of ascending node: 143.3628°
argument of perigee: 99.8749°
revolutions per day: 14.80698435
mean anomaly at epoch: 260.2695°
orbit number at epoch: 46130

The dashed part of the orbit path shows where the satellite is in the earth's shadow,  

DLR